This demonstration page uses our WeatherBlox Daily Observations layout. Learn more.

Left ArrowRight Arrow

38.80484, -77.04692

Hourly Observations for February 14, 2016

Temp ( °F °C ) Dew Point ( °F °C ) Humidity (%) Winds ( mph kmh ) Pressure ( in mb ) Visibility ( mi km ) Precip ( " mm )
12:52 am 00:52 Mostly Clear 15 -9.4 -4 -20 42 42 NW 14 22 30.47 1032 10 16 0.00 0.00
1:52 am 01:52 Clear 14 -10 -3 -19.4 47 47 NNW 13 20 30.46 1032 10 16 0.00 0.00
2:52 am 02:52 Mostly Clear 14 -10 -3 -19.4 47 47 WNW 8 13 30.48 1032 10 16 0.00 0.00
3:52 am 03:52 Mostly Clear 14 -10 -3 -19.4 47 47 WNW 9 15 30.49 1033 10 16 0.00 0.00
4:52 am 04:52 Mostly Clear 14 -10 -3 -19.4 47 47 WNW 10 17 30.52 1034 10 16 0.00 0.00
5:52 am 05:52 Clear 13 -10.6 -2 -18.9 51 51 NW 9 15 30.54 1034 10 16 0.00 0.00
6:52 am 06:52 Mostly Clear 13 -10.6 -2 -18.9 51 51 NNW 9 15 30.56 1035 10 16 0.00 0.00
7:52 am 07:52 Mostly Sunny 14 -10 -2 -18.9 49 49 W 7 11 30.58 1036 10 16 0.00 0.00
8:52 am 08:52 Mostly Sunny 17 -8.3 -2 -18.9 43 43 NNW 9 15 30.60 1036 10 16 0.00 0.00
9:52 am 09:52 Mostly Sunny 19 -7.2 -1 -18.3 41 41 NW 10 17 30.59 1036 10 16 0.00 0.00
10:52 am 10:52 Mostly Sunny 20 -6.7 -2 -18.9 38 38 NNW 10 17 30.59 1036 10 16 0.00 0.00
11:52 am 11:52 Mostly Sunny 21 -6.1 -2 -18.9 36 36 NW 9 15 30.58 1036 10 16 0.00 0.00
12:52 pm 12:52 Mostly Sunny 23 -5 -2 -18.9 33 33 VRB 5 7 30.55 1035 10 16 0.00 0.00
1:52 pm 13:52 Partly Cloudy 24 -4.4 -2 -18.9 32 32 NE 6 9 30.51 1033 10 16 0.00 0.00
2:52 pm 14:52 Mostly Cloudy 25 -3.9 -2 -18.9 30 30 N 8 13 30.48 1032 10 16 0.00 0.00
3:52 pm 15:52 Mostly Cloudy 25 -3.9 -2 -18.9 30 30 E 5 7 30.51 1033 10 16 0.00 0.00
4:52 pm 16:52 Mostly Cloudy 24 -4.4 -1 -18.3 33 33 E 3 6 30.50 1033 10 16 0.00 0.00
5:52 pm 17:52 Mostly Cloudy 24 -4.4 -2 -18.9 32 32 SE 5 7 30.50 1033 10 16 0.00 0.00
6:52 pm 18:52 Mostly Cloudy 24 -4.4 0 -17.8 35 35 SSE 5 7 30.54 1034 10 16 0.00 0.00
7:52 pm 19:52 Mostly Cloudy 22 -5.6 5 -15 48 48 SE 13 20 30.53 1034 10 16 0.00 0.00
8:52 pm 20:52 Cloudy 22 -5.6 5 -15 48 48 ESE 10 17 30.52 1034 10 16 0.00 0.00
9:52 pm 21:52 Cloudy 23 -5 6 -14.4 48 48 SE 10 17 30.52 1034 10 16 0.00 0.00
10:52 pm 22:52 Cloudy 23 -5 6 -14.4 48 48 SSE 8 13 30.52 1033 10 16 0.00 0.00
10:58 pm 22:58 Cloudy with Light Snow 23 -5 7 -14 50 50 SSE 8 13 30.53 1034 10 16 0.00 0.00
11:19 pm 23:19 Cloudy with Light Snow 22 -5.6 9 -12.8 57 57 SE 12 19 30.53 1034 3 5 0.00 0.03
11:37 pm 23:37 Cloudy with Light Snow 21 -6.1 13 -10.6 71 71 SSE 16 26 30.50 1033 3 4 0.00 0.03
11:40 pm 23:40 Cloudy with Light Snow 21 -6 14 -10 74 74 S 16 26 30.50 1033 2 3 0.00 0.00
11:42 pm 23:42 Cloudy with Light Snow 21 -6 14 -10 74 74 SSE 14 22 30.50 1033 2 2 0.00 0.00
11:52 pm 23:52 Cloudy with Light Snow 21 -6.1 15 -9.4 78 78 SSE 10 17 30.51 1033 2 2 0.01 0.25

Powered by AerisWeather